• în România
  • Lista ţărilor
  • Pe 7 zile
  • Temperatura apei
  • Hartă satelitară
  • Meteo pe hartă
  • Widget-uri
  • user-avatar
    Intrare

    Meteo pe oră la Pula

    Astăzi, 18 Decembrie, Luni

    Timp Temperatura Precipitaţii Vânt Presiune Umiditate
    00:00 +3°C° 0 mm 4 m/s 759 mmHg 71%
    01:00 +3°C° 0 mm 4 m/s 759 mmHg 71%
    02:00 +3°C° 0,1 mm 4 m/s 760 mmHg 70%
    03:00 +3°C° 0,1 mm 4 m/s 760 mmHg 70%
    04:00 +3°C° 0,1 mm 4 m/s 760 mmHg 69%
    05:00 +1°C° 0,1 mm 4 m/s 760 mmHg 68%
    06:00 +1°C° 0,1 mm 4 m/s 760 mmHg 66%
    07:00 +1°C° 0,1 mm 4 m/s 760 mmHg 64%
    08:00 +3°C° 0,1 mm 3 m/s 760 mmHg 62%
    09:00 +4°C° 0,1 mm 3 m/s 760 mmHg 61%
    10:00 +5°C° 0,1 mm 3 m/s 760 mmHg 59%
    11:00 +5°C° 0,1 mm 3 m/s 760 mmHg 56%
    12:00 +5°C° 0,1 mm 3 m/s 760 mmHg 54%
    13:00 +7°C° 0,1 mm 2 m/s 760 mmHg 52%
    14:00 +6°C° 0 mm 2 m/s 760 mmHg 54%
    15:00 +6°C° 0 mm 2 m/s 760 mmHg 56%
    16:00 +5°C° 0 mm 2 m/s 760 mmHg 58%
    17:00 +5°C° 0 mm 2 m/s 760 mmHg 59%
    18:00 +4°C° 0 mm 3 m/s 760 mmHg 59%
    19:00 +4°C° 0 mm 3 m/s 761 mmHg 60%
    20:00 +4°C° 0 mm 3 m/s 761 mmHg 60%
    21:00 +3°C° 0 mm 3 m/s 762 mmHg 60%
    22:00 +3°C° 0 mm 4 m/s 762 mmHg 60%
    23:00 +3°C° 0 mm 4 m/s 762 mmHg 62%

    Mâine, 19 Decembrie, Marţi

    Timp Temperatura Precipitaţii Vânt Presiune Umiditate
    00:00 +1°C° 0 mm 4 m/s 763 mmHg 64%
    01:00 +1°C° 0 mm 4 m/s 763 mmHg 65%
    02:00 +1°C° 0 mm 4 m/s 763 mmHg 66%
    03:00 +1°C° 0 mm 4 m/s 763 mmHg 67%
    04:00 +1°C° 0 mm 5 m/s 764 mmHg 68%
    05:00 0°C° 0 mm 5 m/s 764 mmHg 68%
    06:00 0°C° 0 mm 5 m/s 764 mmHg 68%
    07:00 0°C° 0 mm 5 m/s 765 mmHg 68%
    08:00 +1°C° 0 mm 5 m/s 765 mmHg 66%
    09:00 +2°C° 0 mm 5 m/s 766 mmHg 64%
    10:00 +2°C° 0 mm 5 m/s 766 mmHg 62%
    11:00 +4°C° 0 mm 4 m/s 766 mmHg 58%
    12:00 +4°C° 0 mm 4 m/s 766 mmHg 55%
    13:00 +5°C° 0 mm 4 m/s 766 mmHg 52%
    14:00 +4°C° 0 mm 4 m/s 766 mmHg 54%
    15:00 +4°C° 0 mm 3 m/s 766 mmHg 56%
    16:00 +3°C° 0 mm 3 m/s 766 mmHg 58%
    17:00 +3°C° 0 mm 4 m/s 766 mmHg 61%
    18:00 +1°C° 0 mm 4 m/s 766 mmHg 63%
    19:00 +1°C° 0 mm 4 m/s 767 mmHg 65%
    20:00 +1°C° 0 mm 4 m/s 767 mmHg 66%
    21:00 +1°C° 0 mm 4 m/s 767 mmHg 66%
    22:00 0°C° 0 mm 4 m/s 767 mmHg 67%
    23:00 0°C° 0 mm 4 m/s 767 mmHg 66%

    Poimâine, 20 Decembrie, Miercuri

    Timp Temperatura Precipitaţii Vânt Presiune Umiditate
    00:00 0°C° 0 mm 4 m/s 767 mmHg 65%
    01:00 0°C° 0 mm 4 m/s 767 mmHg 65%
    02:00 0°C° 0 mm 4 m/s 767 mmHg 64%
    03:00 0°C° 0 mm 4 m/s 766 mmHg 63%
    04:00 0°C° 0 mm 4 m/s 766 mmHg 62%
    05:00 0°C° 0 mm 4 m/s 766 mmHg 61%
    06:00 0°C° 0 mm 4 m/s 766 mmHg 61%
    07:00 0°C° 0 mm 4 m/s 766 mmHg 60%
    08:00 +1°C° 0 mm 4 m/s 767 mmHg 58%
    09:00 +3°C° 0 mm 4 m/s 767 mmHg 56%
    10:00 +4°C° 0 mm 4 m/s 767 mmHg 55%
    11:00 +4°C° 0 mm 4 m/s 767 mmHg 52%
    12:00 +5°C° 0 mm 4 m/s 766 mmHg 50%
    13:00 +5°C° 0 mm 4 m/s 766 mmHg 47%
    14:00 +5°C° 0 mm 4 m/s 766 mmHg 50%
    15:00 +4°C° 0 mm 4 m/s 766 mmHg 53%
    16:00 +3°C° 0 mm 4 m/s 766 mmHg 56%
    17:00 +3°C° 0 mm 4 m/s 766 mmHg 58%
    18:00 +1°C° 0 mm 4 m/s 766 mmHg 60%
    19:00 +1°C° 0 mm 4 m/s 766 mmHg 62%
    20:00 +1°C° 0 mm 4 m/s 766 mmHg 62%
    21:00 +1°C° 0 mm 4 m/s 766 mmHg 61%
    22:00 +2°C° 0 mm 5 m/s 767 mmHg 61%
    23:00 +1°C° 0 mm 5 m/s 766 mmHg 60%

    21 Decembrie, Joi

    Timp Temperatura Precipitaţii Vânt Presiune Umiditate
    00:00 +1°C° 0 mm 5 m/s 766 mmHg 60%
    01:00 +1°C° 0 mm 5 m/s 766 mmHg 59%
    02:00 +1°C° 0 mm 5 m/s 766 mmHg 60%
    03:00 +1°C° 0 mm 4 m/s 766 mmHg 62%
    04:00 +1°C° 0 mm 4 m/s 766 mmHg 63%
    05:00 +1°C° 0 mm 4 m/s 766 mmHg 64%
    06:00 +1°C° 0 mm 4 m/s 767 mmHg 65%
    07:00 +1°C° 0 mm 4 m/s 767 mmHg 67%
    08:00 +3°C° 0 mm 4 m/s 767 mmHg 66%
    09:00 +4°C° 0 mm 4 m/s 767 mmHg 65%
    10:00 +4°C° 0 mm 4 m/s 767 mmHg 64%
    11:00 +5°C° 0 mm 4 m/s 767 mmHg 63%
    12:00 +6°C° 0 mm 4 m/s 767 mmHg 62%
    13:00 +7°C° 0 mm 4 m/s 767 mmHg 60%
    14:00 +6°C° 0 mm 4 m/s 767 mmHg 64%
    15:00 +5°C° 0 mm 4 m/s 767 mmHg 67%
    16:00 +5°C° 0 mm 4 m/s 766 mmHg 71%
    17:00 +5°C° 0 mm 3 m/s 767 mmHg 72%
    18:00 +5°C° 0 mm 3 m/s 767 mmHg 73%
    19:00 +5°C° 0 mm 3 m/s 767 mmHg 74%
    20:00 +4°C° 0 mm 3 m/s 767 mmHg 75%
    21:00 +4°C° 0 mm 3 m/s 767 mmHg 76%
    22:00 +4°C° 0 mm 4 m/s 767 mmHg 76%
    23:00 +4°C° 0 mm 4 m/s 766 mmHg 76%

    22 Decembrie, Vineri

    Timp Temperatura Precipitaţii Vânt Presiune Umiditate
    00:00 +4°C° 0 mm 4 m/s 766 mmHg 76%
    01:00 +4°C° 0 mm 4 m/s 766 mmHg 75%
    02:00 +4°C° 0 mm 4 m/s 765 mmHg 75%
    03:00 +4°C° 0 mm 4 m/s 765 mmHg 76%
    04:00 +4°C° 0 mm 4 m/s 765 mmHg 76%
    05:00 +4°C° 0 mm 4 m/s 765 mmHg 77%
    06:00 +4°C° 0 mm 4 m/s 765 mmHg 77%
    07:00 +4°C° 0 mm 4 m/s 764 mmHg 78%
    08:00 +5°C° 0 mm 4 m/s 765 mmHg 77%
    09:00 +7°C° 0 mm 3 m/s 765 mmHg 76%
    10:00 +7°C° 0 mm 3 m/s 765 mmHg 75%
    11:00 +8°C° 0 mm 3 m/s 764 mmHg 74%
    12:00 +9°C° 0 mm 3 m/s 764 mmHg 73%
    13:00 +9°C° 0 mm 3 m/s 764 mmHg 72%
    14:00 +8°C° 0 mm 3 m/s 764 mmHg 75%
    15:00 +8°C° 0 mm 2 m/s 764 mmHg 79%
    16:00 +7°C° 0 mm 2 m/s 764 mmHg 82%
    17:00 +7°C° 0 mm 2 m/s 764 mmHg 83%
    18:00 +7°C° 0 mm 2 m/s 764 mmHg 84%
    19:00 +7°C° 0 mm 2 m/s 764 mmHg 85%
    20:00 +7°C° 0 mm 2 m/s 765 mmHg 81%
    21:00 +8°C° 0 mm 2 m/s 765 mmHg 78%
    22:00 +9°C° 0 mm 1 m/s 765 mmHg 75%
    23:00 +9°C° 0 mm 1 m/s 764 mmHg 77%

    23 Decembrie, Sâmbătă

    Timp Temperatura Precipitaţii Vânt Presiune Umiditate
    00:00 +8°C° 0 mm 1 m/s 764 mmHg 79%
    01:00 +7°C° 0 mm 2 m/s 764 mmHg 80%
    02:00 +7°C° 0 mm 2 m/s 763 mmHg 82%
    03:00 +7°C° 0 mm 3 m/s 762 mmHg 83%
    04:00 +5°C° 0 mm 3 m/s 762 mmHg 84%
    05:00 +5°C° 0 mm 4 m/s 761 mmHg 85%
    06:00 +5°C° 0 mm 4 m/s 761 mmHg 86%
    07:00 +5°C° 0 mm 4 m/s 760 mmHg 87%
    08:00 +6°C° 0 mm 4 m/s 760 mmHg 86%
    09:00 +7°C° 0 mm 4 m/s 760 mmHg 85%
    10:00 +7°C° 0 mm 4 m/s 760 mmHg 85%
    11:00 +8°C° 0 mm 4 m/s 760 mmHg 82%
    12:00 +8°C° 0 mm 4 m/s 759 mmHg 80%
    13:00 +10°C° 0 mm 3 m/s 759 mmHg 78%
    14:00 +9°C° 0 mm 3 m/s 759 mmHg 80%
    15:00 +9°C° 0 mm 3 m/s 759 mmHg 83%
    16:00 +8°C° 0 mm 3 m/s 759 mmHg 85%
    17:00 +8°C° 0 mm 3 m/s 759 mmHg 87%
    18:00 +7°C° 0 mm 2 m/s 760 mmHg 90%
    19:00 +7°C° 0 mm 2 m/s 760 mmHg 92%
    20:00 +5°C° 0 mm 3 m/s 761 mmHg 85%
    21:00 +5°C° 0 mm 4 m/s 761 mmHg 78%
    22:00 +4°C° 0 mm 6 m/s 762 mmHg 71%
    23:00 +4°C° 0 mm 7 m/s 763 mmHg 68%
    Arată mai mult

    XHprof extension not loaded